Location: Newark
(19.4083°N, 89.7712°W)
Time: 05:45:18
(UTC+00:00)

Envisat - Visible Passes

Search period start: 23 August 2019 00:00
Search period end: 02 September 2019 00:00
Orbit: 764 x 766 km, 98.1° (Epoch: 22 August)

Date Brightness Start Highest point End Pass type
(mag) Time Alt. Az. Time Alt. Az. Time Alt. Az.
23 Aug 5.8 01:36:26 10° SW 01:39:19 15° W 01:42:14 10° WNW visible
24 Aug 4.4 00:57:45 10° S 01:02:30 41° W 01:07:16 10° NNW visible
26 Aug 5.6 01:24:20 10° SW 01:28:03 21° W 01:31:46 10° NW visible
27 Aug 3.8 00:46:19 10° S 00:51:16 56° W 00:56:14 10° NNW visible
29 Aug 5.1 01:12:31 10° SSW 01:16:47 27° W 01:21:03 10° NW visible
30 Aug 3.3 00:34:58 10° S 00:40:01 75° WSW 00:45:05 10° NNW visible
31 Aug 5.9 01:39:55 10° SW 01:42:21 13° W 01:44:48 10° WNW visible
01 Sep 4.6 01:00:53 10° SSW 01:05:31 37° W 01:10:10 10° NNW visible
